SCP
0 0 0 0 0 0 0 0 0 0 0 0 0 0 0 0 0 0 0 0 0 0 0 0 0 0 0 0 0 0 0 0 0 0 0 0 0 0 0 0 0 0 0
0 0 0 0 0 0 0 0 0 0 0 0 0 0 0 0 0 0 0 0 0 0 0 0 0 0 0 0 0 0 0 0 0 0 0 0 0 0 0 0 0 0 0
0 0 0 0 0 0 0 0 0 0 0 0 0 0 0 0 0 0 0 0 0 0 0 0 0 0 0 0 0 0 0 0 0 0 0 0 0 0 0 0 0 0 0
0 0 0 0 0 0 0 0 0 0 0 0 0 0 0 0 0 0 0 0 0 0 0 0 0 0 0 0 0 0 0 0 0 0 0 0 0 0 0 0 0 0 0
0 0 0 0 0 0 0 0 0 0 0 0 0 0 0 0 0 0 0 0 0 0 0 0 0 0 0 0 0 0 0 0 0 0 0 0 0 0 0 0 0 0 0
0 0 0 0 0 0 0 0 0 0 0 0 0 0 0 0 0 0 0 0 0 0 0 0 0 0 0 0 0 0 0 0 0 0 0 0 0 0 0 0 0 0 0
0 0 0 0 0 0 0 0 0 0 0 0 0 0 0 0 0 0 0 0 0 0 0 0 0 0 0 0 0 0 0 0 0 0 0 0 0 0 0 0 0 0 0
0 0 0 0 0 0 0 0 0 0 0 0 0 0 0 0 0 0 0 0 0 0 0 0 0 0 0 0 0 0 0 0 0 0 0 0 0 0 0 0 0 0 0
0 0 0 0 0 0 0 0 0 0 0 0 0 0 0 0 0 0 0 0 0 0 0 0 0 0 0 0 0 0 0 0 0 0 0 0 0 0 0 0 0 0 0
0 0 0 0 0 0 0 0 0 0 0 0 0 0 0 0 0 0 0 0 0 0 0 0 0 0 0 0 0 0 0 0 0 0 0 0 0 0 0 0 0 0 0
0 0 0 0 0 0 0 0 0 0 0 0 0 0 0 0 0 0 0 0 0 0 0 0 0 0 0 0 0 0 0 0 0 0 0 0 0 0 0 0 0 0 0
0 0 0 0 0 0 0 0 0 0 0 0 0 0 0 0 0 0 0 0 0 0 0 0 0 0 0 0 0 0 0 0 0 0 0 0 0 0 0 0 0 0 0
0 0 0 0 0 0 0 0 0 0 0 0 0 0 0 0 0 0 0 0 0 0 0 0 0 0 0 0 0 0 0 0 0 0 0 0 0 0 0 0 0 0 0
0 0 0 0 0 0 0 0 0 0 0 0 0 0 0 0 0 0 0 0 0 0 0 0 0 0 0 0 0 0 0 0 0 0 0 0 0 0 0 0 0 0 0
0 0 0 0 0 0 0 0 0 0 0 0 0 0 0 0 0 0 0 0 0 0 0 0 0 0 0 0 0 0 0 0 0 0 0 0 0 0 0 0 0 0 0
0 0 0 0 0 0 0 0 0 0 0 0 0 0 0 0 0 0 0 0 0 0 0 0 0 0 0 0 0 0 0 0 0 0 0 0 0 0 0 0 0 0 0
0 0 0 0 0 0 0 0 0 0 0 0 0 0 0 0 0 0 0 0 0 0 0 0 0 0 0 0 0 0 0 0 0 0 0 0 0 0 0 0 0 0 0
0 0 0 0 0 0 0 0 0 0 0 0 0 0 0 0 0 0 0 0 0 0 0 0 0 0 0 0 0 0 0 0 0 0 0 0 0 0 0 0 0 0 0
0 0 0 0 0 0 0 0 0 0 0 0 0 0 0 0 0 0 0 0 0 0 0 0 0 0 0 0 0 0 0 0 0 0 0 0 0 0 0 0 0 0 0
0 0 0 0 0 0 0 0 0 0 0 0 0 0 0 0 0 0 0 0 0 0 0 0 0 0 0 0 0 0 0 0 0 0 0 0 0 0 0 0 0 0 0
0 0 0 0 0 0 0 0 0 0 0 0 0 0 0 0 0 0 0 0 0 0 0 0 0 0 0 0 0 0 0 0 0 0 0 0 0 0 0 0 0 0 0
0 0 0 0 0 0 0 0 0 0 0 0 0 0 0 0 0 0 0 0 0 0 0 0 0 0 0 0 0 0 0 0 0 0 0 0 0 0 0 0 0 0 0
0 0 0 0 0 0 0 0 0 0 0 0 0 0 0 0 0 0 0 0 0 0 0 0 0 0 0 0 0 0 0 0 0 0 0 0 0 0 0 0 0 0 0
0 0 0 0 0 0 0 0 0 0 0 0 0 0 0 0 0 0 0 0 0 0 0 0 0 0 0 0 0 0 0 0 0 0 0 0 0 0 0 0 0 0 0
0 0 0 0 0 0 0 0 0 0 0 0 0 0 0 0 0 0 0 0 0 0 0 0 0 0 0 0 0 0 0 0 0 0 0 0 0 0 0 0 0 0 0
0 0 0 0 0 0 0 0 0 0 0 0 0 0 0 0 0 0 0 0 0 0 0 0 0 0 0 0 0 0 0 0 0 0 0 0 0 0 0 0 0 0 0
Wind_Speed_500mb
111 105 105 97 103 99 87 75 70 65 56 52 48 47 45 43 42 41 39 39 37 35 33 30 29 27 26 22 19 15 13 15 19 21 19 17 15 14 12 11 13 14 15
110 109 109 110 100 98 94 89 73 69 61 57 53 52 46 46 44 42 42 40 40 37 32 33 32 30 29 26 23 19 16 14 15 15 16 16 13 10 7 6 9 13 14
126 124 119 109 109 112 107 94 89 78 70 66 58 57 50 50 46 44 43 42 40 36 35 33 32 31 30 28 26 24 22 20 18 17 17 17 14 8 6 5 7 12 10
85 102 111 107 110 103 100 103 97 87 76 70 64 58 53 52 48 46 45 44 42 39 39 35 33 32 29 26 27 26 26 25 22 21 19 17 13 9 7 3 3 6 7
70 78 90 89 91 92 91 103 98 87 78 71 64 61 58 55 52 49 47 46 43 43 41 38 35 33 30 28 27 27 27 25 24 23 21 19 15 11 8 5 8 12 12
61 65 71 76 94 82 78 96 83 84 77 72 67 64 62 60 52 48 48 47 46 43 42 39 37 35 33 30 28 27 25 23 24 24 22 20 15 11 6 7 12 17 19
49 52 56 63 59 52 64 69 71 77 76 73 65 69 67 59 50 51 49 49 46 44 43 40 39 36 34 31 28 28 27 26 25 23 22 20 16 12 8 9 14 19 24
27 35 37 41 45 47 47 53 47 68 76 74 70 71 61 57 53 55 53 51 47 45 43 40 38 36 34 31 29 29 29 28 26 24 22 19 17 14 12 13 16 21 26
26 25 26 31 35 36 41 51 60 70 73 72 66 66 63 58 57 55 54 53 51 48 46 44 40 37 35 35 33 32 32 31 28 26 23 20 17 15 15 18 21 25 30
17 20 24 28 33 39 43 45 52 57 65 67 68 64 58 55 59 58 56 56 53 51 50 46 44 39 38 37 35 34 35 32 30 29 25 21 19 19 19 21 24 26 30
10 15 19 23 28 32 37 41 45 53 57 63 63 61 57 54 59 61 58 57 57 54 53 51 48 44 42 39 36 35 32 32 33 32 28 24 23 22 23 24 26 28 31
3 9 14 20 25 28 31 35 40 46 53 58 56 54 55 57 57 57 58 57 55 54 54 48 45 43 43 39 38 36 36 35 36 36 33 30 28 26 25 27 29 31 33
6 6 8 14 20 25 28 31 37 42 50 53 54 54 58 60 59 59 57 57 56 54 50 45 40 42 40 42 41 38 38 40 41 41 38 33 30 29 29 31 33 34 35
8 11 11 12 15 20 24 27 31 38 45 49 51 55 56 57 60 63 63 61 57 54 50 43 39 41 47 46 44 43 39 45 45 42 38 35 35 34 35 36 37 37 40
10 11 14 15 14 16 19 23 27 31 36 41 47 53 59 62 64 63 64 64 61 56 49 40 44 58 57 54 51 43 46 51 49 46 42 39 40 40 40 40 39 40 43
9 6 7 10 11 12 13 17 22 26 29 33 38 41 44 48 52 54 58 57 53 50 48 50 62 62 60 58 52 43 51 55 50 47 45 44 46 44 44 41 42 42 45
12 6 1 1 3 7 9 11 15 20 19 21 24 27 29 34 39 39 44 48 51 55 48 51 64 62 62 55 47 43 52 53 49 47 47 48 47 49 45 43 41 42 45
10 7 5 3 3 4 6 9 12 16 18 25 28 33 37 38 33 32 40 42 52 60 60 60 63 61 52 54 59 46 50 49 49 50 51 50 49 49 46 46 42 42 45
17 13 8 3 2 3 5 7 10 13 16 21 28 30 30 32 29 32 38 50 53 62 61 57 53 54 63 53 39 44 48 48 54 53 50 51 48 47 50 48 44 44 45
23 20 17 14 11 12 11 11 14 16 19 23 26 29 32 36 40 46 54 59 62 58 58 58 60 66 51 38 49 49 51 58 54 50 49 47 48 51 53 47 43 45 46
25 21 19 16 15 14 13 12 9 7 7 10 16 22 29 33 39 45 52 49 51 58 62 65 67 63 61 52 42 56 55 52 50 49 48 48 51 54 50 45 44 45 48
28 28 24 20 14 9 8 8 10 11 10 10 9 11 15 23 26 30 37 45 50 56 60 61 63 63 52 42 46 45 48 51 50 50 47 54 54 53 46 43 43 45 47
23 22 21 20 18 17 16 13 11 10 11 13 18 23 29 35 37 41 46 50 51 52 51 43 36 36 36 43 44 46 51 51 45 48 54 52 53 49 43 43 46 45 44
28 27 26 26 25 26 25 23 22 21 19 14 13 14 17 22 26 29 28 26 23 23 25 30 36 38 44 49 54 52 45 49 56 53 49 49 48 43 41 44 41 40 45
34 34 34 34 33 33 34 34 34 33 33 33 34 33 31 30 30 31 34 39 43 43 43 43 41 42 44 45 49 53 56 54 52 47 46 45 44 39 37 38 38 41 44
42 41 41 41 42 41 40 40 39 37 38 38 38 39 40 42 44 46 47 48 48 49 53 55 55 57 58 60 59 53 50 49 47 45 44 43 41 37 34 36 38 43 45
Wind_Direction_500mb
224 225 226 226 227 225 227 229 231 231 235 237 241 240 238 237 239 240 241 240 239 238 239 238 236 236 236 232 232 233 220 218 217 224 250 269 277 295 313 326 334 336 342
223 228 231 233 234 229 225 229 230 232 238 240 240 237 236 237 238 241 242 242 241 236 235 236 232 230 231 231 232 234 230 232 215 230 256 267 274 276 295 332 329 341 342
229 234 237 234 232 230 228 228 225 228 232 236 233 234 237 237 238 238 238 239 239 238 233 230 233 231 228 231 235 233 234 240 240 240 239 244 248 243 272 311 323 334 342
236 236 236 236 235 232 234 231 229 226 227 230 233 235 237 237 238 237 236 235 234 232 234 226 227 229 229 231 232 231 234 236 237 239 231 232 230 243 255 268 324 355 345
242 240 238 236 236 235 236 235 231 228 227 230 234 233 235 234 235 234 235 233 231 229 228 226 226 226 226 227 230 233 234 232 231 227 226 227 224 230 250 291 353 358 342
242 242 238 239 239 234 251 245 231 228 227 228 229 231 234 234 235 233 231 231 230 228 229 227 225 226 227 225 224 225 228 232 229 228 224 224 224 229 259 312 331 345 357
236 235 235 235 238 239 237 231 229 227 225 224 227 231 231 234 232 232 227 228 226 227 227 227 228 227 226 224 219 220 222 225 224 224 224 223 222 230 258 303 324 337 338
231 232 231 230 228 223 227 227 240 230 225 227 227 229 231 232 226 230 225 224 224 224 228 229 230 230 226 223 221 222 220 220 219 221 218 219 230 244 269 298 317 325 329
217 224 230 231 234 238 239 234 232 230 228 226 228 226 229 228 232 226 223 222 220 221 225 225 226 226 225 224 222 220 218 217 216 214 217 225 241 260 282 301 313 317 321
233 225 227 233 235 240 243 240 234 231 234 230 229 223 229 229 224 227 223 223 223 222 223 224 225 224 225 225 223 221 221 221 218 217 222 233 248 264 283 296 304 311 319
218 225 228 233 236 238 241 242 241 239 233 228 226 226 227 225 225 227 223 223 225 225 225 226 226 223 224 223 222 223 224 222 220 223 230 239 249 262 276 289 299 306 312
211 228 235 239 241 243 242 243 242 240 236 233 230 229 229 224 223 226 227 227 227 228 231 230 232 229 226 224 223 221 220 222 225 228 232 238 248 262 277 287 293 300 306
248 255 255 250 247 247 245 241 237 234 230 230 231 235 229 224 223 225 225 228 228 228 230 233 231 230 228 225 222 221 224 229 232 234 238 243 253 265 278 285 291 297 302
271 245 240 257 263 251 243 239 237 236 235 236 234 233 233 231 229 227 225 225 226 226 226 223 223 230 229 227 221 219 232 247 241 242 244 247 257 268 278 285 289 296 302
285 254 244 245 253 261 254 249 248 247 247 250 247 243 240 236 234 231 229 227 227 226 222 219 232 229 224 221 222 230 248 244 243 245 247 251 259 267 275 280 288 294 300
306 273 245 249 256 260 260 255 249 247 246 250 251 249 253 251 246 241 237 234 231 227 223 230 229 227 227 225 225 241 252 248 248 249 248 252 259 268 273 279 285 294 300
27 6 316 206 247 257 265 268 267 260 255 251 249 249 247 246 246 243 236 234 235 222 244 231 233 232 232 228 233 254 254 252 252 249 251 254 261 267 270 277 283 289 293
16 25 29 330 274 263 265 264 261 262 259 260 250 244 239 233 231 233 230 224 226 235 235 231 230 230 228 232 247 251 255 251 250 251 252 256 263 267 271 278 281 284 287
40 42 42 28 280 264 260 252 244 241 241 243 243 241 240 233 217 219 223 228 225 227 229 233 231 230 238 252 246 241 251 250 250 249 253 257 263 268 273 275 276 278 286
46 47 42 37 24 351 327 302 283 269 259 249 244 242 240 233 225 220 219 227 223 227 233 234 231 232 247 239 243 249 248 251 251 250 258 264 267 268 271 272 273 278 286
35 34 35 37 37 31 24 23 17 357 319 285 267 255 248 244 242 241 235 229 226 227 233 235 241 247 250 250 235 251 253 247 247 252 258 263 266 266 268 267 267 276 291
25 32 32 28 18 360 348 331 322 314 305 301 302 289 263 246 244 243 241 241 243 246 246 251 255 256 239 232 253 248 249 251 251 253 261 267 264 266 264 262 269 279 292
348 348 347 344 345 351 3 6 351 327 313 300 288 281 270 264 261 256 254 254 255 256 252 246 241 237 241 247 243 246 252 251 254 261 260 261 265 261 259 264 273 283 291
323 320 315 311 307 304 302 300 297 294 295 301 298 286 278 269 264 263 256 247 242 241 250 252 252 250 251 250 251 250 249 256 255 257 261 263 261 253 253 265 276 287 293
307 305 303 301 298 295 291 287 286 285 283 279 273 268 265 264 262 260 262 266 269 264 256 255 252 248 249 252 253 255 256 249 253 259 260 263 255 247 256 269 278 287 292
304 300 297 295 294 292 289 286 282 279 277 275 272 271 270 267 265 264 264 264 262 257 255 255 255 255 254 256 257 250 244 245 252 259 261 256 243 249 261 275 283 289 292
Wind_Speed_850mb
111 105 105 97 103 99 87 75 70 65 56 52 48 47 45 43 42 41 39 39 37 35 33 30 29 27 26 22 19 15 13 15 19 21 19 17 15 14 12 11 13 14 15
110 109 109 110 100 98 94 89 73 69 61 57 53 52 46 46 44 42 42 40 40 37 32 33 32 30 29 26 23 19 16 14 15 15 16 16 13 10 7 6 9 13 14
126 124 119 109 109 112 107 94 89 78 70 66 58 57 50 50 46 44 43 42 40 36 35 33 32 31 30 28 26 24 22 20 18 17 17 17 14 8 6 5 7 12 10
85 102 111 107 110 103 100 103 97 87 76 70 64 58 53 52 48 46 45 44 42 39 39 35 33 32 29 26 27 26 26 25 22 21 19 17 13 9 7 3 3 6 7
70 78 90 89 91 92 91 103 98 87 78 71 64 61 58 55 52 49 47 46 43 43 41 38 35 33 30 28 27 27 27 25 24 23 21 19 15 11 8 5 8 12 12
61 65 71 76 94 82 78 96 83 84 77 72 67 64 62 60 52 48 48 47 46 43 42 39 37 35 33 30 28 27 25 23 24 24 22 20 15 11 6 7 12 17 19
49 52 56 63 59 52 64 69 71 77 76 73 65 69 67 59 50 51 49 49 46 44 43 40 39 36 34 31 28 28 27 26 25 23 22 20 16 12 8 9 14 19 24
27 35 37 41 45 47 47 53 47 68 76 74 70 71 61 57 53 55 53 51 47 45 43 40 38 36 34 31 29 29 29 28 26 24 22 19 17 14 12 13 16 21 26
26 25 26 31 35 36 41 51 60 70 73 72 66 66 63 58 57 55 54 53 51 48 46 44 40 37 35 35 33 32 32 31 28 26 23 20 17 15 15 18 21 25 30
17 20 24 28 33 39 43 45 52 57 65 67 68 64 58 55 59 58 56 56 53 51 50 46 44 39 38 37 35 34 35 32 30 29 25 21 19 19 19 21 24 26 30
10 15 19 23 28 32 37 41 45 53 57 63 63 61 57 54 59 61 58 57 57 54 53 51 48 44 42 39 36 35 32 32 33 32 28 24 23 22 23 24 26 28 31
3 9 14 20 25 28 31 35 40 46 53 58 56 54 55 57 57 57 58 57 55 54 54 48 45 43 43 39 38 36 36 35 36 36 33 30 28 26 25 27 29 31 33
6 6 8 14 20 25 28 31 37 42 50 53 54 54 58 60 59 59 57 57 56 54 50 45 40 42 40 42 41 38 38 40 41 41 38 33 30 29 29 31 33 34 35
8 11 11 12 15 20 24 27 31 38 45 49 51 55 56 57 60 63 63 61 57 54 50 43 39 41 47 46 44 43 39 45 45 42 38 35 35 34 35 36 37 37 40
10 11 14 15 14 16 19 23 27 31 36 41 47 53 59 62 64 63 64 64 61 56 49 40 44 58 57 54 51 43 46 51 49 46 42 39 40 40 40 40 39 40 43
9 6 7 10 11 12 13 17 22 26 29 33 38 41 44 48 52 54 58 57 53 50 48 50 62 62 60 58 52 43 51 55 50 47 45 44 46 44 44 41 42 42 45
12 6 1 1 3 7 9 11 15 20 19 21 24 27 29 34 39 39 44 48 51 55 48 51 64 62 62 55 47 43 52 53 49 47 47 48 47 49 45 43 41 42 45
10 7 5 3 3 4 6 9 12 16 18 25 28 33 37 38 33 32 40 42 52 60 60 60 63 61 52 54 59 46 50 49 49 50 51 50 49 49 46 46 42 42 45
17 13 8 3 2 3 5 7 10 13 16 21 28 30 30 32 29 32 38 50 53 62 61 57 53 54 63 53 39 44 48 48 54 53 50 51 48 47 50 48 44 44 45
23 20 17 14 11 12 11 11 14 16 19 23 26 29 32 36 40 46 54 59 62 58 58 58 60 66 51 38 49 49 51 58 54 50 49 47 48 51 53 47 43 45 46
25 21 19 16 15 14 13 12 9 7 7 10 16 22 29 33 39 45 52 49 51 58 62 65 67 63 61 52 42 56 55 52 50 49 48 48 51 54 50 45 44 45 48
28 28 24 20 14 9 8 8 10 11 10 10 9 11 15 23 26 30 37 45 50 56 60 61 63 63 52 42 46 45 48 51 50 50 47 54 54 53 46 43 43 45 47
23 22 21 20 18 17 16 13 11 10 11 13 18 23 29 35 37 41 46 50 51 52 51 43 36 36 36 43 44 46 51 51 45 48 54 52 53 49 43 43 46 45 44
28 27 26 26 25 26 25 23 22 21 19 14 13 14 17 22 26 29 28 26 23 23 25 30 36 38 44 49 54 52 45 49 56 53 49 49 48 43 41 44 41 40 45
34 34 34 34 33 33 34 34 34 33 33 33 34 33 31 30 30 31 34 39 43 43 43 43 41 42 44 45 49 53 56 54 52 47 46 45 44 39 37 38 38 41 44
42 41 41 41 42 41 40 40 39 37 38 38 38 39 40 42 44 46 47 48 48 49 53 55 55 57 58 60 59 53 50 49 47 45 44 43 41 37 34 36 38 43 45
Wind_Direction_850mb
224 225 226 226 227 225 227 229 231 231 235 237 241 240 238 237 239 240 241 240 239 238 239 238 236 236 236 232 232 233 220 218 217 224 250 269 277 295 313 326 334 336 342
223 228 231 233 234 229 225 229 230 232 238 240 240 237 236 237 238 241 242 242 241 236 235 236 232 230 231 231 232 234 230 232 215 230 256 267 274 276 295 332 329 341 342
229 234 237 234 232 230 228 228 225 228 232 236 233 234 237 237 238 238 238 239 239 238 233 230 233 231 228 231 235 233 234 240 240 240 239 244 248 243 272 311 323 334 342
236 236 236 236 235 232 234 231 229 226 227 230 233 235 237 237 238 237 236 235 234 232 234 226 227 229 229 231 232 231 234 236 237 239 231 232 230 243 255 268 324 355 345
242 240 238 236 236 235 236 235 231 228 227 230 234 233 235 234 235 234 235 233 231 229 228 226 226 226 226 227 230 233 234 232 231 227 226 227 224 230 250 291 353 358 342
242 242 238 239 239 234 251 245 231 228 227 228 229 231 234 234 235 233 231 231 230 228 229 227 225 226 227 225 224 225 228 232 229 228 224 224 224 229 259 312 331 345 357
236 235 235 235 238 239 237 231 229 227 225 224 227 231 231 234 232 232 227 228 226 227 227 227 228 227 226 224 219 220 222 225 224 224 224 223 222 230 258 303 324 337 338
231 232 231 230 228 223 227 227 240 230 225 227 227 229 231 232 226 230 225 224 224 224 228 229 230 230 226 223 221 222 220 220 219 221 218 219 230 244 269 298 317 325 329
217 224 230 231 234 238 239 234 232 230 228 226 228 226 229 228 232 226 223 222 220 221 225 225 226 226 225 224 222 220 218 217 216 214 217 225 241 260 282 301 313 317 321
233 225 227 233 235 240 243 240 234 231 234 230 229 223 229 229 224 227 223 223 223 222 223 224 225 224 225 225 223 221 221 221 218 217 222 233 248 264 283 296 304 311 319
218 225 228 233 236 238 241 242 241 239 233 228 226 226 227 225 225 227 223 223 225 225 225 226 226 223 224 223 222 223 224 222 220 223 230 239 249 262 276 289 299 306 312
211 228 235 239 241 243 242 243 242 240 236 233 230 229 229 224 223 226 227 227 227 228 231 230 232 229 226 224 223 221 220 222 225 228 232 238 248 262 277 287 293 300 306
248 255 255 250 247 247 245 241 237 234 230 230 231 235 229 224 223 225 225 228 228 228 230 233 231 230 228 225 222 221 224 229 232 234 238 243 253 265 278 285 291 297 302
271 245 240 257 263 251 243 239 237 236 235 236 234 233 233 231 229 227 225 225 226 226 226 223 223 230 229 227 221 219 232 247 241 242 244 247 257 268 278 285 289 296 302
285 254 244 245 253 261 254 249 248 247 247 250 247 243 240 236 234 231 229 227 227 226 222 219 232 229 224 221 222 230 248 244 243 245 247 251 259 267 275 280 288 294 300
306 273 245 249 256 260 260 255 249 247 246 250 251 249 253 251 246 241 237 234 231 227 223 230 229 227 227 225 225 241 252 248 248 249 248 252 259 268 273 279 285 294 300
27 6 316 206 247 257 265 268 267 260 255 251 249 249 247 246 246 243 236 234 235 222 244 231 233 232 232 228 233 254 254 252 252 249 251 254 261 267 270 277 283 289 293
16 25 29 330 274 263 265 264 261 262 259 260 250 244 239 233 231 233 230 224 226 235 235 231 230 230 228 232 247 251 255 251 250 251 252 256 263 267 271 278 281 284 287
40 42 42 28 280 264 260 252 244 241 241 243 243 241 240 233 217 219 223 228 225 227 229 233 231 230 238 252 246 241 251 250 250 249 253 257 263 268 273 275 276 278 286
46 47 42 37 24 351 327 302 283 269 259 249 244 242 240 233 225 220 219 227 223 227 233 234 231 232 247 239 243 249 248 251 251 250 258 264 267 268 271 272 273 278 286
35 34 35 37 37 31 24 23 17 357 319 285 267 255 248 244 242 241 235 229 226 227 233 235 241 247 250 250 235 251 253 247 247 252 258 263 266 266 268 267 267 276 291
25 32 32 28 18 360 348 331 322 314 305 301 302 289 263 246 244 243 241 241 243 246 246 251 255 256 239 232 253 248 249 251 251 253 261 267 264 266 264 262 269 279 292
348 348 347 344 345 351 3 6 351 327 313 300 288 281 270 264 261 256 254 254 255 256 252 246 241 237 241 247 243 246 252 251 254 261 260 261 265 261 259 264 273 283 291
323 320 315 311 307 304 302 300 297 294 295 301 298 286 278 269 264 263 256 247 242 241 250 252 252 250 251 250 251 250 249 256 255 257 261 263 261 253 253 265 276 287 293
307 305 303 301 298 295 291 287 286 285 283 279 273 268 265 264 262 260 262 266 269 264 256 255 252 248 249 252 253 255 256 249 253 259 260 263 255 247 256 269 278 287 292
304 300 297 295 294 292 289 286 282 279 277 275 272 271 270 267 265 264 264 264 262 257 255 255 255 255 254 256 257 250 244 245 252 259 261 256 243 249 261 275 283 289 292